Date,TemperatureHighF,TemperatureAvgF,TemperatureLowF,DewpointHighF,DewpointAvgF,DewpointLowF,HumidityHigh,HumidityAvg,HumidityLow,PressureMaxIn,PressureMinIn,WindSpeedMaxMPH,WindSpeedAvgMPH,GustSpeedMaxMPH,PrecipitationSumIn
2013-1-1,32,24,20,32,23,15,99,92,81,30.08,29.91,11,6,13,0.01
2013-1-2,38,28,13,23,15,12,97,63,36,30.08,29.99,8,4,9,0.00
2013-1-3,42,31,21,28,24,20,96,76,49,30.23,30.07,8,4,8,0.00
2013-1-4,46,35,22,28,22,19,99,63,36,30.28,30.15,9,5,13,0.00
2013-1-5,43,38,27,32,28,21,86,68,60,30.15,29.98,13,7,17,0.00
2013-1-6,38,31,26,31,25,22,91,78,56,30.17,30.00,14,8,19,0.00
2013-1-7,51,35,20,24,21,15,85,60,27,30.19,29.97,12,6,12,0.00
2013-1-8,57,42,27,45,28,19,99,63,24,30.05,29.91,11,6,11,0.01
2013-1-9,56,48,40,48,41,33,99,79,52,30.25,30.06,9,3,9,0.02
2013-1-10,52,47,40,52,45,34,99,95,61,30.19,29.68,14,6,14,0.17
2013-1-11,66,56,45,51,47,44,99,75,51,29.72,29.61,15,10,20,0.01
2013-1-12,56,43,29,49,36,28,99,79,42,29.84,29.67,14,5,16,0.25
2013-1-13,26,22,20,26,20,18,99,92,87,30.08,29.80,0,0,0,0.00
2013-1-14,30,21,12,22,16,11,98,82,66,30.30,30.19,0,0,0,0.00
2013-1-15,27,22,12,22,19,12,98,89,70,30.18,30.03,0,0,0,0.00
2013-1-16,42,28,14,25,20,14,99,73,41,30.00,29.91,13,2,13,0.13
2013-1-17,43,33,24,32,26,21,99,75,48,30.31,30.04,11,5,11,0.00
2013-1-18,59,44,23,30,24,18,91,51,21,30.32,30.04,15,8,21,0.01
2013-1-19,65,56,42,37,31,28,68,41,25,30.04,29.86,18,12,22,0.01
2013-1-20,50,40,29,31,14,2,76,39,17,30.14,30.05,8,5,9,0.00
2013-1-21,31,23,16,14,10,5,77,58,40,30.21,30.13,10,5,10,0.00
2013-1-22,35,23,15,12,7,2,70,50,32,30.23,30.09,7,3,7,0.00
2013-1-23,56,36,19,35,24,12,87,65,43,30.18,29.99,12,5,12,0.00
2013-1-24,32,28,17,20,8,4,72,44,30,30.29,30.00,12,8,15,0.00
2013-1-25,47,37,26,26,23,15,94,61,38,30.09,29.94,9,5,13,0.00
2013-1-26,60,47,32,32,21,11,75,40,16,30.16,30.03,12,4,14,0.00
2013-1-27,52,45,38,51,43,27,99,91,56,30.02,29.76,17,11,24,0.08
2013-1-28,75,65,56,61,59,55,99,82,55,29.82,29.70,17,11,17,0.00
2013-1-29,68,58,52,62,56,52,99,95,80,29.69,29.37,17,7,17,1.69
2013-1-30,50,33,25,50,30,18,99,89,74,29.83,29.28,29,10,29,0.06
2013-1-31,37,23,9,28,16,1,99,74,55,30.25,29.81,17,8,17,0.00
2013-2-1,32,23,4,15,8,0,86,55,32,30.30,30.06,8,4,11,0.00
2013-2-2,48,43,26,32,28,17,75,57,42,30.03,29.96,15,8,24,0.00
2013-2-3,55,43,34,31,19,7,79,41,16,30.09,29.91,19,8,23,0.00
2013-2-4,62,48,28,37,28,22,92,50,27,29.81,29.67,16,9,16,0.00
2013-2-5,62,43,24,36,27,22,99,61,22,29.95,29.77,15,4,15,0.00
2013-2-6,61,45,30,35,30,27,92,59,29,30.02,29.85,15,6,15,0.00
2013-2-7,55,46,39,51,42,35,99,86,66,29.94,29.73,14,6,14,0.43
2013-2-8,42,34,28,37,30,26,99,87,67,30.17,29.95,11,5,11,0.00
2013-2-9,47,38,29,37,30,26,99,76,49,30.10,29.74,14,9,19,0.26
2013-2-10,63,53,37,55,40,20,99,69,22,29.74,29.46,22,14,32,0.48
2013-2-11,52,50,49,24,22,20,37,32,28,29.96,29.94,10,7,11,0.60
2013-2-12,45,35,27,33,27,22,99,75,48,30.00,29.81,8,3,8,0.11
2013-2-13,47,37,30,37,33,30,99,87,65,29.81,29.73,18,5,18,0.50
2013-2-14,56,44,36,34,29,23,75,57,31,29.96,29.73,14,7,14,0.00
2013-2-15,42,34,24,30,16,1,79,50,18,30.14,29.97,14,7,14,0.00
2013-2-16,39,31,19,21,15,8,95,54,31,30.13,30.00,11,5,14,0.00
2013-2-17,64,50,28,25,20,15,65,32,16,29.97,29.74,14,7,17,0.00
2013-2-18,57,45,40,50,40,32,99,82,61,29.69,29.42,19,13,25,0.15
2013-2-19,27,27,26,20,19,18,73,72,72,29.93,29.91,12,9,12,0.00
2013-2-20,31,25,20,12,7,4,58,47,36,30.18,30.01,9,4,9,0.00
2013-2-21,32,28,25,32,24,12,99,86,51,30.02,29.59,17,2,17,0.00
2013-2-22,33,27,22,32,24,20,99,86,69,29.91,29.64,0,0,0,0.13
2013-2-23,41,32,16,24,20,16,98,62,39,29.92,29.81,8,2,11,0.02
2013-2-24,54,43,20,32,26,18,96,55,35,29.91,29.78,10,6,14,0.00
2013-2-25,47,36,29,34,28,22,99,75,38,29.81,29.31,17,8,17,0.66
2013-2-26,34,32,31,34,32,31,99,99,96,29.63,29.19,13,6,13,0.27
2013-2-27,34,31,30,31,29,26,99,93,86,29.83,29.63,19,10,19,0.01
2013-2-28,32,30,29,27,26,26,91,87,81,29.99,29.81,15,8,15,0.00
2013-3-1,30,28,26,26,25,21,98,88,70,30.06,29.96,11,7,11,0.00
2013-3-2,35,30,22,24,17,15,95,60,46,30.13,30.06,11,6,11,0.06
2013-3-3,51,40,15,24,20,14,95,49,27,30.04,29.77,13,6,16,0.00
2013-3-4,36,36,36,27,27,26,69,69,69,29.62,29.61,14,9,21,0.00
2013-3-5,44,36,32,42,26,19,99,69,46,29.97,29.67,18,14,21,0.15
2013-3-6,45,32,24,21,19,17,84,61,35,30.23,30.09,14,6,14,0.00
2013-3-7,62,42,24,30,23,14,89,55,16,30.16,30.03,12,5,12,0.00
2013-3-8,60,52,33,33,31,28,90,46,31,30.15,29.98,12,8,17,0.00
2013-3-9,73,60,42,54,42,26,99,57,20,29.87,29.60,18,11,25,0.66
2013-3-10,62,52,42,55,50,41,99,94,55,29.65,29.50,18,8,27,0.87
2013-3-11,42,31,27,32,27,24,99,86,51,29.86,29.67,22,10,22,0.01
2013-3-12,53,38,26,26,22,15,87,56,22,30.13,29.85,17,7,17,0.00
2013-3-13,51,36,25,23,17,3,80,52,14,30.29,30.13,10,6,10,0.00
2013-3-14,73,50,27,39,26,18,76,45,16,30.22,29.93,19,7,19,0.00
2013-3-15,84,66,50,44,39,29,70,42,14,29.94,29.60,15,8,15,0.00
2013-3-16,65,51,42,47,41,36,81,68,42,29.82,29.59,13,9,18,0.00
2013-3-17,37,35,34,36,35,33,99,99,99,29.87,29.61,12,8,16,1.68
2013-3-18,54,44,35,39,33,22,99,71,34,29.77,29.54,14,8,15,0.00
2013-3-19,39,31,25,25,21,15,81,66,36,30.05,29.90,7,3,7,0.00
2013-3-23,47,43,35,41,36,33,99,75,64,29.82,29.64,8,5,11,0.09
2013-3-24,37,32,28,37,32,28,99,99,96,29.73,29.44,16,10,24,0.20
2013-3-25,33,27,22,29,25,21,99,90,76,30.10,29.82,14,9,14,0.00
2013-3-26,46,32,20,27,23,18,99,72,33,30.22,30.10,8,5,8,0.00
2013-3-27,58,40,21,30,21,8,99,56,15,30.19,30.06,11,4,11,0.00
2013-3-28,70,54,41,42,35,28,89,51,23,30.11,29.99,10,5,13,0.04
2013-3-29,70,57,46,56,48,36,99,75,40,30.06,30.00,11,3,11,0.46
2013-3-30,60,52,45,53,50,43,99,90,72,30.00,29.75,15,6,18,0.19
2013-3-31,73,62,46,56,40,26,99,53,20,29.82,29.74,12,6,16,0.24
2013-4-1,53,47,37,37,24,13,80,44,24,30.05,29.82,12,7,12,0.00
2013-4-2,50,38,33,23,19,13,67,47,23,30.16,30.07,8,4,8,0.00
2013-4-3,58,43,29,20,14,1,61,36,10,30.17,30.04,13,5,13,0.00
2013-4-4,59,46,35,26,20,11,62,38,16,30.04,29.91,11,4,11,0.00
2013-4-5,79,57,39,34,24,12,56,34,10,30.04,29.85,7,4,7,0.00
2013-4-6,80,66,50,44,35,20,54,34,12,29.84,29.62,20,12,30,0.01
2013-4-7,86,72,53,54,45,31,82,43,15,29.78,29.64,11,6,14,0.00
2013-4-8,81,66,56,59,56,53,98,72,39,29.69,29.61,13,7,13,0.01
2013-4-9,78,68,59,62,58,56,93,73,53,29.73,29.63,14,7,14,0.00
2013-4-10,69,59,40,65,57,40,99,92,79,29.69,29.50,24,7,24,0.87
2013-4-11,49,41,34,40,32,27,99,72,48,29.65,29.58,22,10,22,0.05
2013-4-12,56,44,34,32,27,22,86,52,34,29.88,29.62,18,11,24,0.00
2013-4-13,79,60,34,38,30,20,91,39,14,29.93,29.69,11,5,14,0.00
2013-4-14,85,74,51,49,38,25,77,31,14,29.70,29.41,20,14,26,0.07
2013-4-15,80,59,50,63,53,42,99,83,56,29.76,29.58,12,6,12,0.00
2013-4-16,50,46,44,50,46,44,99,99,94,29.93,29.77,16,8,16,0.02
2013-4-17,88,68,46,72,57,45,99,74,42,29.89,29.53,22,10,22,0.01
2013-4-18,72,50,40,65,46,33,99,86,76,29.71,29.43,23,12,23,1.61
2013-4-19,56,45,34,28,20,9,71,41,17,29.94,29.75,20,13,27,0.05
2013-4-20,69,54,32,32,24,13,75,35,13,30.10,29.94,7,4,11,0.00
2013-4-21,76,63,44,38,30,17,76,34,12,30.17,30.02,14,8,17,0.00
2013-4-22,77,60,44,41,32,14,73,42,10,30.07,29.80,17,7,17,0.00
2013-4-23,59,47,36,54,43,36,99,88,55,29.92,29.75,11,7,11,0.73
2013-4-24,61,44,34,36,29,16,99,65,18,30.13,29.91,11,6,11,0.01
2013-4-25,76,62,34,36,23,13,77,27,10,30.20,30.09,14,6,18,0.00
2013-4-26,51,47,46,49,46,42,99,96,72,30.21,30.03,14,6,19,1.13
2013-4-27,54,50,46,54,50,46,99,99,99,30.05,29.86,8,4,10,0.47
2013-4-28,77,58,49,51,49,44,99,77,31,29.88,29.78,9,5,13,0.01
2013-4-29,94,71,50,59,52,47,99,63,22,29.78,29.63,14,7,15,0.00
2013-4-30,91,75,58,60,47,25,95,47,10,29.79,29.66,14,7,14,0.00
2013-5-1,88,72,54,60,55,50,90,59,30,29.95,29.79,11,4,11,0.00
2013-5-2,65,50,36,60,47,36,99,92,81,30.08,29.92,11,6,11,0.09
2013-5-3,37,34,32,36,34,32,99,99,95,30.02,29.77,11,7,14,0.48
2013-5-4,51,44,33,41,36,33,99,77,53,29.85,29.69,7,3,8,0.54
2013-5-5,59,50,39,50,44,38,99,81,66,29.89,29.81,10,6,12,0.00
2013-5-6,71,62,52,57,53,49,99,75,48,29.90,29.82,11,8,11,0.00
2013-5-7,86,67,53,55,48,36,95,58,18,29.93,29.85,10,4,10,0.00
2013-5-8,83,65,50,60,53,45,99,71,28,29.93,29.82,10,3,10,0.01
2013-5-9,86,68,59,63,58,53,99,75,34,29.85,29.75,12,6,12,0.22
2013-5-10,70,62,56,61,57,52,99,83,57,29.89,29.75,9,5,12,0.00
2013-5-11,74,63,47,56,38,11,99,47,10,30.05,29.89,12,7,16,0.01
2013-5-12,73,61,37,36,18,5,82,26,10,30.14,30.01,8,4,12,0.00
2013-5-13,87,65,44,49,37,25,78,44,11,30.06,29.90,11,4,11,0.00
2013-5-14,98,77,58,52,42,28,75,36,10,29.88,29.77,18,8,18,0.00
2013-5-15,94,75,62,65,57,49,96,56,29,29.85,29.75,10,6,10,0.07
2013-5-16,78,66,60,66,61,57,99,86,56,29.81,29.74,11,4,11,0.01
2013-5-17,84,71,61,67,62,59,99,77,45,29.83,29.75,8,2,8,0.00
2013-5-18,90,77,60,72,68,60,99,76,46,29.84,29.71,11,5,15,0.00
2013-5-19,94,84,68,76,67,58,99,63,34,29.76,29.55,12,7,23,0.00
2013-5-20,78,70,60,71,67,59,99,90,74,29.75,29.59,9,5,14,0.35
2013-5-21,78,67,59,64,61,58,99,83,51,29.71,29.52,13,4,13,0.00
2013-5-22,77,65,55,60,56,52,99,75,45,29.81,29.61,16,5,16,0.00
2013-5-23,75,63,53,56,54,52,99,75,46,30.06,29.80,9,4,9,0.00
2013-5-24,79,70,48,56,40,28,99,39,18,30.22,30.06,12,6,17,0.00
2013-5-25,90,75,52,64,56,45,79,52,38,30.11,29.95,6,5,11,0.00
2013-5-26,95,82,60,67,63,59,98,56,31,30.00,29.85,11,5,11,0.00
2013-5-27,88,76,64,70,67,64,99,75,52,29.89,29.69,11,5,15,0.00
2013-10-1,90,81,71,75,71,65,99,74,44,29.88,29.83,6,4,9,0.00
2013-11-9,68,59,49,45,43,41,84,58,40,30.09,29.98,12,4,15,0.00
2013-11-10,68,54,42,42,32,27,81,46,22,30.25,30.11,7,2,11,0.00
2013-11-11,64,52,32,55,45,31,99,78,59,30.31,30.01,18,8,21,0.04
2013-11-12,38,29,23,31,19,12,99,68,35,30.58,30.31,16,9,19,0.00
2013-11-13,54,39,16,22,14,3,92,42,12,30.50,30.17,9,6,12,0.00
2013-11-14,58,47,27,24,16,-1,73,33,10,30.12,29.89,13,7,17,0.00
2013-11-15,60,50,42,50,44,36,99,80,54,29.88,29.72,12,7,16,0.01
2013-11-16,69,60,51,63,58,50,99,94,74,29.73,29.46,19,12,30,0.25
2013-11-17,76,64,47,67,41,4,99,53,11,29.89,29.34,28,13,40,0.14
2013-11-18,59,47,37,40,30,20,91,56,23,30.13,29.88,9,4,11,0.00
2013-11-19,60,49,34,35,26,19,81,44,22,30.13,29.96,12,6,14,0.00
2013-11-20,54,46,37,38,32,18,97,61,35,29.95,29.79,14,8,18,0.09
2013-11-21,52,50,46,52,48,35,99,96,53,30.00,29.86,10,3,10,0.50
2013-11-22,48,31,30,47,30,29,99,99,99,30.35,30.08,12,1,12,0.01
2013-11-23,36,28,18,30,19,9,99,67,47,30.50,30.34,13,7,17,0.00
2013-11-24,29,24,10,15,11,6,97,60,40,30.51,30.19,9,4,10,0.00
2013-11-25,38,32,28,29,20,9,84,63,43,30.19,29.99,8,4,11,0.00
2013-11-26,44,34,27,32,26,18,99,75,56,30.08,29.94,14,7,19,0.00
2013-11-27,35,25,15,14,12,7,86,57,33,30.22,30.10,9,5,13,0.00
2013-11-28,50,41,21,27,22,14,76,49,36,30.23,30.05,15,7,19,0.00
2013-11-29,58,43,24,31,28,22,97,59,30,30.34,30.15,9,4,13,0.00
2013-11-30,63,50,30,43,39,28,95,67,42,30.16,29.93,12,6,17,0.00
2013-12-1,64,51,34,53,44,33,99,79,56,29.97,29.80,5,2,8,0.00
2013-12-2,62,48,42,53,45,42,99,90,58,29.73,29.52,7,3,7,0.00
2013-12-3,62,50,39,54,48,39,99,94,74,29.53,29.44,12,5,12,0.00
2013-12-4,64,46,31,57,45,31,99,94,61,29.76,29.43,19,9,22,0.00
2013-12-5,30,22,17,30,19,16,99,89,75,30.10,29.79,13,6,15,0.00
2013-12-6,19,16,9,18,13,3,99,87,70,30.38,30.08,13,8,14,0.00
2013-12-7,22,14,5,8,4,1,87,67,46,30.46,30.25,9,5,11,0.00
2013-12-8,29,23,16,26,22,13,99,95,87,30.17,29.82,11,4,11,0.00
2013-12-9,27,22,18,26,19,14,99,89,65,30.16,29.95,8,5,8,0.00
2013-12-10,31,20,9,17,13,8,99,76,50,30.17,30.09,17,6,17,0.00
2013-12-11,34,20,11,24,12,4,96,69,48,30.43,30.10,13,4,13,0.00
2013-12-12,41,25,8,22,13,4,85,63,38,30.42,30.08,10,5,13,0.00
2013-12-13,34,32,21,34,30,16,99,96,71,30.07,29.70,9,3,13,0.18
2013-12-14,32,30,26,32,30,26,99,99,99,30.00,29.66,6,0,6,0.01
2013-12-15,42,34,20,36,30,20,99,87,65,30.03,29.90,10,4,13,0.38
2013-12-16,57,45,34,37,35,33,93,68,43,29.98,29.85,11,6,11,0.00
2013-12-17,49,37,26,35,28,23,99,75,40,30.13,29.95,13,4,13,0.00
2013-12-18,56,45,26,39,33,22,91,64,40,30.11,29.77,21,7,21,0.00
2013-12-19,56,52,45,51,47,40,89,85,78,29.77,29.60,13,9,18,0.00
2013-12-20,62,44,31,61,43,31,99,98,89,29.73,29.59,13,6,18,0.00
2013-12-21,32,32,31,32,31,31,99,99,99,29.63,29.36,0,0,0,0.00
2013-12-22,34,28,23,33,27,23,99,99,99,30.14,29.49,0,0,0,0.00
2013-12-23,27,19,14,22,17,13,99,92,73,30.37,30.15,0,0,0,0.01
2013-12-24,33,23,7,21,16,6,99,75,59,30.38,30.09,0,0,0,0.00
2013-12-25,35,31,24,33,29,20,99,94,82,30.18,30.09,11,3,11,0.01
2013-12-26,50,40,23,40,28,22,99,66,34,30.20,30.08,10,5,14,0.01
2013-12-27,59,48,33,33,30,28,84,53,33,30.21,30.10,9,6,13,0.00
2013-12-28,59,48,34,34,29,25,82,51,29,30.11,29.79,10,6,14,0.00
2013-12-29,43,24,19,35,21,15,99,86,73,30.09,29.75,13,8,14,0.00
2013-12-30,35,24,7,18,8,4,87,54,31,30.12,30.02,8,4,11,0.00
2013-12-31,55,42,19,26,22,16,88,48,25,30.18,29.98,12,7,17,0.00
2014-1-1,46,38,19,32,28,19,99,69,52,29.97,29.75,16,5,18,0.00
2014-1-2,21,13,5,17,7,-1,99,78,57,30.27,29.93,13,6,14,0.00